TimeCST,TemperatureF,Dew PointF,Humidity,Sea Level PressureIn,VisibilityMPH,Wind Direction,Wind SpeedMPH,Gust SpeedMPH,PrecipitationIn,Events,Conditions,WindDirDegrees,DateUTC
12:54 AM,18.0,7.0,62,30.35,10.0,NW,13.8,-,N/A,,Clear,320,2013-02-20 06:54:00
1:54 AM,16.0,7.0,68,30.35,10.0,NW,13.8,-,N/A,,Clear,320,2013-02-20 07:54:00
2:54 AM,14.0,5.0,67,30.37,10.0,NNW,11.5,-,N/A,,Clear,330,2013-02-20 08:54:00
3:54 AM,12.0,6.1,77,30.35,10.0,North,17.3,-,N/A,,Clear,10,2013-02-20 09:54:00
4:54 AM,9.0,1.9,73,30.37,10.0,North,15.0,-,N/A,,Clear,10,2013-02-20 10:54:00
5:54 AM,8.1,1.9,76,30.39,10.0,North,9.2,-,N/A,,Clear,360,2013-02-20 11:54:00
6:54 AM,7.0,1.0,77,30.42,10.0,NNW,6.9,-,N/A,,Clear,340,2013-02-20 12:54:00
7:54 AM,8.1,1.0,73,30.41,10.0,NNE,9.2,-,N/A,,Clear,20,2013-02-20 13:54:00
8:54 AM,10.4,1.4,67,30.42,10.0,Variable,5.8,-,N/A,,Clear,0,2013-02-20 14:54:00
9:54 AM,14.0,3.0,62,30.45,10.0,Variable,3.5,-,N/A,,Clear,0,2013-02-20 15:54:00
10:54 AM,16.0,3.9,59,30.47,10.0,NNE,5.8,-,N/A,,Clear,30,2013-02-20 16:54:00
11:54 AM,17.1,6.1,62,30.45,10.0,North,4.6,-,N/A,,Clear,350,2013-02-20 17:54:00
12:54 PM,18.0,7.0,62,30.42,10.0,Variable,4.6,-,N/A,,Clear,0,2013-02-20 18:54:00
1:54 PM,19.9,6.1,55,30.39,10.0,NE,5.8,-,N/A,,Clear,50,2013-02-20 19:54:00
2:54 PM,19.9,8.1,60,30.39,10.0,East,3.5,-,N/A,,Clear,80,2013-02-20 20:54:00
3:54 PM,21.0,8.1,57,30.37,10.0,NE,6.9,-,N/A,,Clear,40,2013-02-20 21:54:00
4:54 PM,19.9,8.1,60,30.37,10.0,NNE,6.9,-,N/A,,Clear,30,2013-02-20 22:54:00
5:54 PM,19.9,10.9,68,30.35,10.0,NE,9.2,-,N/A,,Clear,50,2013-02-20 23:54:00
6:54 PM,19.9,10.9,68,30.34,10.0,NE,8.1,-,N/A,,Clear,50,2013-02-21 00:54:00
7:54 PM,21.0,10.0,63,30.34,10.0,ENE,9.2,-,N/A,,Clear,70,2013-02-21 01:54:00
8:54 PM,19.4,10.4,68,30.32,10.0,East,6.9,-,N/A,,Overcast,90,2013-02-21 02:54:00
9:54 PM,19.9,10.9,68,30.37,10.0,ENE,5.8,-,N/A,,Overcast,70,2013-02-21 03:54:00
10:54 PM,19.0,12.0,74,30.35,10.0,NE,9.2,-,N/A,,Overcast,50,2013-02-21 04:54:00
11:54 PM,19.0,12.0,74,30.36,10.0,East,6.9,-,N/A,,Clear,80,2013-02-21 05:54:00